User: anonymous   Login
Location: Unspecified
(0.0000°N, 0.0000°E)
Time: 02:56:24
(UTC+00:00)
Language:

GALILEO 8 (264) - Orbit

View from above orbital plane
View from above orbital plane
View from above satellite
View from above satellite

Ground track
Ground track

The orbit data is extracted from the following two-line orbital elements,

1 40545U 15017B   17229.95515449 -.00000025  00000-0  00000+0 0  9992
2 40545  55.6690  70.2744 0002344 128.3706 231.7287  1.70475112 14884
Epoch (UTC): 17 August 2017 22:55:25
Eccentricity: 0.0002344
inclination: 55.6690°
perigee height: 23215 km
apogee height: 23229 km
right ascension of ascending node: 70.2744°
argument of perigee: 128.3706°
revolutions per day: 1.70475112
mean anomaly at epoch: 231.7287°
orbit number at epoch: 1488

The dashed part of the orbit path shows where the satellite is in the earth's shadow,  

DLR